Weather History for Gunnison, CO

Change the Weather History Date:

Thursday, November 22, 2012

  Actual Average Record
Temperature  
Mean Temperature 32 °F -  
Max Temperature 53 °F 35 °F 53 °F (2012)
Min Temperature 10 °F 11 °F 0 °F (2007)
Degree Days  
Heating Degree Days 34    
Moisture  
Dew Point 11 °F    
Average Humidity 50    
Maximum Humidity 79    
Minimum Humidity 22    
Precipitation  
Precipitation 0.00 in - - ()
Sea Level Pressure  
Sea Level Pressure 30.34 in    
Wind  
Wind Speed 2 mph (SW)    
Max Wind Speed 18 mph    
Max Gust Speed 24 mph    
Visibility 10 miles    
Events      
Averages and records for this station are not official NWS values.
T = Trace of Precipitation, MM = Missing Value Source: NWS Daily Summary

Daily Weather History Graph

Daily Weather History Graph

Search for Another Location

Airport:

Trip Planner

Search our weather history database for the weather conditions in past years. The results will help you decide how hot, cold, wet, or windy it might be!

Date:

Astronomy

Nov. 22, 2012 Rise Set
Actual Time 6:57 AM MST 4:50 PM MST
Civil Twilight 6:28 AM MST 5:18 PM MST
Nautical Twilight 5:56 AM MST 5:51 PM MST
Astronomical Twilight 5:24 AM MST 6:22 PM MST
Moon 1:33 PM MST (11/22) 1:24 AM MST (11/22)
Length of Visible Light 10h 49m
Length of Day
9h 52m
Waxing Gibbous, 72% of the Moon is Illuminated
Nov 22
Waxing Gibbous
Nov 28
Full
Dec 6
Last Quarter
Dec 13
New
Dec 19
First Quarter

Hourly Weather History & Observations

Time (MST) Temp. Windchill Dew Point Humidity Pressure Visibility Wind Dir Wind Speed Gust Speed Precip Events Conditions
12:15 AM 17.6 °F 12.3 °F 5.0 °F 58% 30.23 in 10.0 mi ESE 3.5 mph - N/A   Clear
12:55 AM 17.6 °F - 8.6 °F 68% 30.23 in 10.0 mi Calm Calm - N/A   Clear
1:15 AM 17.6 °F - 8.6 °F 68% 30.24 in 10.0 mi Calm Calm - N/A   Clear
1:35 AM 17.6 °F - 6.8 °F 63% 30.24 in 10.0 mi Calm Calm - N/A   Clear
1:55 AM 15.8 °F - 6.8 °F 68% 30.25 in 10.0 mi Calm Calm - N/A   Clear
2:15 AM 15.8 °F - 6.8 °F 68% 30.25 in 10.0 mi Calm Calm - N/A   Clear
2:35 AM 14.0 °F - 3.2 °F 62% 30.26 in 10.0 mi Calm Calm - N/A   Clear
2:55 AM 15.8 °F - 8.6 °F 73% 30.26 in 10.0 mi Calm Calm - N/A   Clear
3:15 AM 15.8 °F - 8.6 °F 73% 30.27 in 10.0 mi Calm Calm - N/A   Clear
3:35 AM 15.8 °F - 6.8 °F 68% 30.27 in 10.0 mi Calm Calm - N/A   Clear
3:55 AM 15.8 °F - 8.6 °F 73% 30.27 in 10.0 mi Calm Calm - N/A   Clear
4:15 AM 14.0 °F - 3.2 °F 62% 30.27 in 10.0 mi Calm Calm - N/A   Clear
4:35 AM 12.2 °F - 6.8 °F 79% 30.27 in 10.0 mi Calm Calm - N/A   Clear
4:55 AM 14.0 °F - 6.8 °F 73% 30.27 in 10.0 mi Calm Calm - N/A   Clear
5:15 AM 12.2 °F - 5.0 °F 73% 30.28 in 10.0 mi Calm Calm - N/A   Clear
5:35 AM 12.2 °F - 6.8 °F 79% 30.28 in 10.0 mi Calm Calm - N/A   Clear
5:55 AM 12.2 °F 4.3 °F 6.8 °F 79% 30.29 in 10.0 mi NE 4.6 mph - N/A   Clear
6:15 AM 12.2 °F - 5.0 °F 73% 30.30 in 10.0 mi Calm Calm - N/A   Clear
6:35 AM 12.2 °F - 6.8 °F 79% 30.31 in 8.0 mi Calm Calm - N/A   Clear
6:55 AM 10.4 °F - 1.4 °F 67% 30.31 in 10.0 mi Calm Calm - N/A   Clear
7:35 AM 12.2 °F - 6.8 °F 79% 30.34 in 10.0 mi Calm Calm - N/A   Clear
7:55 AM 12.2 °F - 6.8 °F 79% 30.34 in 10.0 mi Calm Calm - N/A   Clear
8:15 AM 15.8 °F - 8.6 °F 73% 30.35 in 10.0 mi Calm Calm - N/A   Clear
8:35 AM 17.6 °F - 10.4 °F 73% 30.36 in 10.0 mi Calm Calm - N/A   Clear
8:55 AM 19.4 °F - 8.6 °F 63% 30.36 in 10.0 mi Calm Calm - N/A   Clear
9:15 AM 21.2 °F - 10.4 °F 63% 30.36 in 10.0 mi Calm Calm - N/A   Clear
9:35 AM 24.8 °F - 12.2 °F 59% 30.36 in 10.0 mi Calm Calm - N/A   Clear
9:55 AM 26.6 °F - 12.2 °F 55% 30.36 in 10.0 mi Calm Calm - N/A   Clear
10:15 AM 28.4 °F - 12.2 °F 51% 30.37 in 10.0 mi Calm Calm - N/A   Clear
10:35 AM 32.0 °F - 12.2 °F 44% 30.36 in 10.0 mi Calm Calm - N/A   Clear
10:55 AM 33.8 °F 30.8 °F 12.2 °F 41% 30.35 in 10.0 mi South 3.5 mph - N/A   Clear
11:15 AM 37.4 °F - 14.0 °F 38% 30.35 in 10.0 mi Calm Calm - N/A   Clear
11:35 AM 39.2 °F - 12.2 °F 33% 30.33 in 10.0 mi Calm Calm - N/A   Clear
12:15 PM 46.4 °F 42.9 °F 17.6 °F 32% 30.31 in 10.0 mi SSW 6.9 mph - N/A   Clear
12:35 PM 48.2 °F - 17.6 °F 30% 30.31 in 10.0 mi SW 8.1 mph - N/A   Clear
12:55 PM 48.2 °F - 17.6 °F 30% 30.30 in 10.0 mi WSW 6.9 mph - N/A   Clear
1:15 PM 51.8 °F - 19.4 °F 28% 30.29 in 10.0 mi WSW 10.4 mph - N/A   Clear
1:35 PM 51.8 °F - 19.4 °F 28% 30.29 in 10.0 mi WSW 10.4 mph 16.1 mph N/A   Clear
1:55 PM 53.6 °F - 17.6 °F 24% 30.29 in 10.0 mi SSW 6.9 mph - N/A   Clear
2:15 PM 53.6 °F - 17.6 °F 24% 30.28 in 10.0 mi SW 13.8 mph 19.6 mph N/A   Clear
2:35 PM 53.6 °F - 15.8 °F 22% 30.28 in 10.0 mi SW 16.1 mph 23.0 mph N/A   Clear
2:55 PM 51.8 °F - 15.8 °F 24% 30.29 in 10.0 mi SW 15.0 mph 21.9 mph N/A   Clear
3:15 PM 51.8 °F - 15.8 °F 24% 30.30 in 10.0 mi WSW 18.4 mph 24.2 mph N/A   Clear
3:35 PM 51.8 °F - 15.8 °F 24% 30.31 in 10.0 mi SW 12.7 mph 18.4 mph N/A   Clear
3:55 PM 50.0 °F - 14.0 °F 24% 30.32 in 10.0 mi WSW 17.3 mph 20.7 mph N/A   Clear
4:15 PM 48.2 °F - 14.0 °F 25% 30.32 in 10.0 mi WSW 15.0 mph 20.7 mph N/A   Clear
4:35 PM 48.2 °F - 12.2 °F 24% 30.33 in 10.0 mi WSW 11.5 mph - N/A   Clear
4:55 PM 46.4 °F 42.4 °F 12.2 °F 25% 30.35 in 10.0 mi WSW 8.1 mph - N/A   Clear
5:15 PM 44.6 °F 40.7 °F 12.2 °F 27% 30.36 in 10.0 mi WSW 6.9 mph - N/A   Clear
5:35 PM 44.6 °F - 12.2 °F 27% 30.37 in 10.0 mi Calm Calm - N/A   Clear
5:55 PM 41.0 °F 39.0 °F 8.6 °F 26% 30.37 in 10.0 mi ESE 3.5 mph - N/A   Clear
6:15 PM 39.2 °F 37.0 °F 14.0 °F 36% 30.38 in 10.0 mi NNE 3.5 mph - N/A   Clear
6:35 PM 37.4 °F 34.9 °F 10.4 °F 33% 30.40 in 10.0 mi NW 3.5 mph - N/A   Clear
6:55 PM 37.4 °F - 12.2 °F 36% 30.41 in 10.0 mi Calm Calm - N/A   Clear
7:15 PM 35.6 °F 32.8 °F 10.4 °F 35% 30.41 in 10.0 mi South 3.5 mph - N/A   Clear
7:35 PM 37.4 °F - 6.8 °F 28% 30.42 in 10.0 mi Calm Calm - N/A   Clear
7:55 PM 33.8 °F - 10.4 °F 38% 30.42 in 10.0 mi Calm Calm - N/A   Clear
8:15 PM 33.8 °F - 10.4 °F 38% 30.43 in 10.0 mi Calm Calm - N/A   Clear
8:35 PM 30.2 °F - 8.6 °F 40% 30.44 in 10.0 mi Calm Calm - N/A   Clear
8:55 PM 30.2 °F - 12.2 °F 47% 30.45 in 10.0 mi Calm Calm - N/A   Clear
9:15 PM 26.6 °F - 12.2 °F 55% 30.45 in 10.0 mi Calm Calm - N/A   Clear
9:35 PM 24.8 °F 19.1 °F 8.6 °F 50% 30.46 in 10.0 mi ENE 4.6 mph - N/A   Clear
10:35 PM 24.8 °F - 10.4 °F 54% 30.48 in 10.0 mi Calm Calm - N/A   Clear
10:55 PM 21.2 °F - 10.4 °F 63% 30.48 in 10.0 mi Calm Calm - N/A   Clear
11:15 PM 21.2 °F - 10.4 °F 63% 30.49 in 9.0 mi Calm Calm - N/A   Clear
11:35 PM 21.2 °F - 10.4 °F 63% 30.50 in 10.0 mi Calm Calm - N/A   Clear
11:55 PM 21.2 °F - 8.6 °F 58% 30.50 in 10.0 mi Calm Calm - N/A   Clear